Terminal Aerodrome Forecast
Issued by NWS

Home | Current Version | Previous Version | Text Only | Print | Product List | Glossary On
Versions: 1 2 3 4 5 6 7 8 9 10 11 12 13 14 15 16 17 18 19 20 21 22 23 24 25 26
000
FTUS41 KPBZ 222300
TAFFKL
TAF
KFKL 222332Z 2300/2324 VRB03KT P6SM BKN050
     FM230600 VRB03KT 5SM BR SCT035
     FM230800 VRB03KT 1SM BR SCT005
     FM231400 07005KT 6SM HZ BKN015
     FM231700 08005KT P6SM BKN035
      AMD LTD TO CLD VIS AND WIND=

USA.gov is the U.S. government's official web portal to all federal, state and local government web resources and services.